User: anonymous   Login
Location: Unspecified
(0.0000°N, 0.0000°E)
Time: 09:18:43
(UTC+00:00)
Language:

GONETS D1M 1 - Orbit

View from above orbital plane
View from above orbital plane
View from above satellite
View from above satellite

Ground track
Ground track

The orbit data is extracted from the following two-line orbital elements,

1 28908U 05048A   17268.90571737 +.00000026 +00000-0 +98299-4 0  9996
2 28908 082.4720 184.9390 0008317 078.5031 350.4919 12.55480191539058
Epoch (UTC): 25 September 2017 21:44:13
Eccentricity: 0.0008317
inclination: 82.4720°
perigee height: 1435 km
apogee height: 1448 km
right ascension of ascending node: 184.9390°
argument of perigee: 78.5031°
revolutions per day: 12.55480191
mean anomaly at epoch: 350.4919°
orbit number at epoch: 53905

The dashed part of the orbit path shows where the satellite is in the earth's shadow,  

DLR